Weather History for NW Arkansas Airport, AR

Change the Weather History Date:

Wednesday, August 7, 2013

  Actual Average Record
Temperature  
Mean Temperature 82 °F -  
Max Temperature 91 °F - - ()
Min Temperature 73 °F - - ()
Cooling Degree Days 17    
Growing Degree Days 32 (Base 50)    
Moisture  
Dew Point 74 °F    
Average Humidity 80    
Maximum Humidity 93    
Minimum Humidity 57    
Precipitation  
Precipitation 0.00 in - - ()
Sea Level Pressure  
Sea Level Pressure 29.88 in    
Wind  
Wind Speed 7 mph (ESE)    
Max Wind Speed 15 mph    
Max Gust Speed 22 mph    
Visibility 10 miles    
Events Thunderstorm    
T = Trace of Precipitation, MM = Missing Value Source: NWS Daily Summary

Daily Weather History Graph

Daily Weather History Graph

Search for Another Location

Airport:

Trip Planner

Search our weather history database for the weather conditions in past years. The results will help you decide how hot, cold, wet, or windy it might be!

Date:

Astronomy

Aug. 07, 2013 Rise Set
Actual Time 6:28 AM CDT 8:16 PM CDT
Civil Twilight 6:01 AM CDT 8:44 PM CDT
Nautical Twilight 5:27 AM CDT 9:17 PM CDT
Astronomical Twilight 4:51 AM CDT 9:53 PM CDT
Moon 7:15 AM CDT (8/7) 8:28 PM CDT (8/7)
Length of Visible Light 14h 43m
Length of Day
13h 47m
New Moon, 1% of the Moon is Illuminated
Aug 7
New Moon
Aug 14
First Quarter
Aug 20
Full
Aug 28
Last Quarter
Sep 5
New

Hourly Weather History & Observations

Time (CDT) Temp. Heat Index Dew Point Humidity Pressure Visibility Wind Dir Wind Speed Gust Speed Precip Events Conditions
12:53 AM 80.1 °F 85.1 °F 75.0 °F 85% 29.85 in 10.0 mi South 5.8 mph - N/A   Clear
1:53 AM 79.0 °F - 73.9 °F 84% 29.83 in 10.0 mi South 4.6 mph - N/A   Clear
2:53 AM 78.1 °F - 72.0 °F 81% 29.81 in 10.0 mi SSW 6.9 mph - N/A   Clear
3:53 AM 78.1 °F - 71.1 °F 79% 29.81 in 10.0 mi SSW 5.8 mph - N/A   Clear
4:53 AM 77.0 °F - 71.1 °F 82% 29.84 in 10.0 mi NW 8.1 mph - N/A   Partly Cloudy
5:53 AM 75.0 °F - 72.0 °F 90% 29.83 in 10.0 mi South 4.6 mph - N/A   Clear
6:53 AM 73.9 °F - 72.0 °F 93% 29.85 in 10.0 mi Calm Calm - N/A   Clear
7:53 AM 75.9 °F - 73.0 °F 91% 29.90 in 10.0 mi SE 5.8 mph - N/A   Overcast
8:53 AM 77.0 °F - 73.0 °F 88% 29.91 in 10.0 mi NE 6.9 mph - N/A   Overcast
9:53 AM 78.1 °F - 73.0 °F 84% 29.92 in 10.0 mi East 9.2 mph - N/A   Overcast
10:33 AM 75.2 °F - 71.6 °F 89% 29.99 in 8.0 mi ENE 15.0 mph - 0.00 in   Overcast
10:48 AM 75.2 °F - 71.6 °F 89% 29.98 in 10.0 mi East 15.0 mph 21.9 mph 0.00 in   Mostly Cloudy
10:53 AM 75.9 °F - 72.0 °F 87% 29.92 in 10.0 mi East 13.8 mph - 0.00 in   Partly Cloudy
11:53 AM 81.0 °F 84.9 °F 71.1 °F 72% 29.92 in 10.0 mi SE 13.8 mph - N/A   Mostly Cloudy
12:53 PM 84.0 °F 89.6 °F 72.0 °F 67% 29.91 in 10.0 mi SE 12.7 mph - N/A   Mostly Cloudy
1:53 PM 87.1 °F 94.5 °F 73.0 °F 63% 29.88 in 10.0 mi ESE 9.2 mph - N/A   Clear
2:53 PM 88.0 °F 94.7 °F 72.0 °F 59% 29.87 in 10.0 mi SSE 3.5 mph - N/A   Mostly Cloudy
3:53 PM 90.0 °F 97.9 °F 73.0 °F 57% 29.84 in 10.0 mi South 3.5 mph - N/A   Clear
4:53 PM 91.9 °F 103.2 °F 75.0 °F 58% 29.84 in 10.0 mi SSW 8.1 mph - N/A   Clear
5:53 PM 88.0 °F 98.5 °F 75.9 °F 67% 29.84 in 10.0 mi South 4.6 mph - N/A   Partly Cloudy
6:53 PM 84.9 °F 95.3 °F 77.0 °F 77% 29.85 in 10.0 mi North 6.9 mph - N/A   Clear
7:53 PM 82.9 °F 92.8 °F 78.1 °F 85% 29.86 in 10.0 mi NNE 8.1 mph - N/A   Clear
8:53 PM 80.1 °F 85.4 °F 75.9 °F 87% 29.87 in 10.0 mi NNE 9.2 mph - N/A   Mostly Cloudy
9:31 PM 78.8 °F - 75.2 °F 89% 29.93 in 10.0 mi NE 8.1 mph - N/A   Scattered Clouds
9:53 PM 79.0 °F - 75.0 °F 88% 29.88 in 10.0 mi ENE 8.1 mph - N/A   Partly Cloudy
10:53 PM 79.0 °F - 73.9 °F 84% 29.90 in 10.0 mi ENE 6.9 mph - N/A   Overcast
11:23 PM 78.8 °F - 75.2 °F 89% 29.93 in 10.0 mi NE 4.6 mph - N/A Thunderstorm Partly Cloudy
11:53 PM 78.1 °F - 75.0 °F 90% 29.88 in 10.0 mi ENE 8.1 mph - N/A Thunderstorm Mostly Cloudy